SCP
0 0 -0 -0 -0 -0 -0 -0 0 0 0 -0 -0 -0 -0 -0 -0 -0 -0 -0 -0 -0 -0 0 0 0 0 0 0 0 0 0 0 0 0 0 0 0 0 0 0 0 0 0 0 0 0
0 0 0 0 0 -0 -0 -0 -0 0 0 -0 -0 -0 -0 -0 -0 -0 -0 -0 -0 -0 -0 -0 0 0 0 0 0 0 0 0 0 0 0 0 0 0 0 0 0 0 0 0 0 0 0
0 0 0 0 0 0 0 -0 0 -0 -0 -0 -0 -0 -0 -0 -0 -0 -0 -0 -0 -0 0 -0 -0 0 0 0 0 0 0 0 0 0 0 0 0 0 0 0 0 0 0 0 0 0 0
0 0 0 0 0 0 0 0 -0 -0 -0 -0 -0 -0 -0 -0 -0 -0 -0 -0 -0 -0 0 0 0 0 0 0 0 0 0 0 0 0 0 0 0 0 0 0 0 0 0 0 0 0 0
0 0 0 0 0 0 0 0 0 -0 -0 -0 -0 -0 -0 -0 -0 -0 -0 -0 -0 0 0 0 0 0 0 0 0 0 0 0 0 0 0 0 0 0 0 0 0 0 0 0 0 0 0
0 0 0 0 0 0 0 0 0 0 0 -0 -0 -0 -0 -0 -0 0 -0 -0 0 0 0 0 0 0 0 0 0 0 -0 0 0 0 0 0 0 0 0 0 0 0 0 0 0 0 0
0 0 0 0 0 0 -0 -0 0 0 0 -0 -0 -0 -0 0 -0 -0 -0 0 0 0 0 0 0 0 0 0 0 0 0 0 0 0 0 0 0 0 0 0 0 0 0 0 0 0 0
0 0 0 0 0 0 0 0 -0 -0 0 0 -0 -0 -0 -0 0 -0 0 0 0 0 0 0 0 0 0 0 0 0 0 0 0 0 0 0 0 0 0 0 0 0 0 0 0 0 0
0 0 0 0 0 0 0 0 0 0 0 0 -0 0 -0 -0 0 0 0 0 0 0 0 0 0 0 0 0 0 -0 0 0 0 0 0 0 0 0 0 0 0 0 0 0 0 0 0
0 0 0 0 0 0 0 0 0 0 0 0 -0 0 0 -0 0 0 0 0 0 0 0 0 0 -0 0 0 0 -0 0 0 0 0 0 0 0 0 0 0 0 0 0 0 0 0 0
0 0 0 0 0 0 0 0 0 0 0 -0 0 0 0 0 0 0 0 0 0 0 0 0 0 0 0 0 0 0 0 0 0 0 0 0 0 0 0 0 0 0 0 0 0 0 0
0 0 0 0 0 0 0 0 0 -0 0 -0 -0 -0 0 0 0 0 0 0 0 0 0 0 0 0 0 -0 0 0 0 0 0 0 0 0 0 0 0 0 0 0 0 0 0 0 0
0 0 0 0 0 0 0 0 -0 0 -0 -0 -0 -0 0 0 0 0 0 0 0 0 0 0 0 0 0 0 0 0 0 0 0 0 0 0 0 0 0 0 0 0 0 0 0 0 0
0 0 0 0 0 0 0 0 -0 -0 -0 -0 -0 -0 0 0 0 0 0 0 0 0 0 0 0 0 0 0 0 0 0 0 0 0 0 0 0 0 0 0 0 0 0 0 0 0 0
0 0 0 0 0 0 0 -0 -0 -0 -0 -0 -0 0 0 0 0 0 0 0 0 0 0 0 0 0 0 0 0 0 0 0 0 0 0 0 0 0 0 0 0 0 0 0 0 0 0
0 0 0 0 0 0 0 0 -0 0 -0 -0 0 0 0 0 0 0 0 0 0 0 0 0 0 0 0 0 0 0 0 0 0 0 0 0 0 0 0 0 0 0 0 0 0 0 0
0 0 0 0 0 0 0 0 -0 0 -0 0 0 0 0 0 0 0 0 0 0 0 0 0 0 0 0 0 0 0 0 0 0 0 0 0 0 0 0 0 0 0 0 0 0 0 0
0 0 0 0 0 0 0 0 0 -0 0 0 0 0 0 0 0 0 0 0 0 0 0 0 0 0 0 0 0 0 0 0 0 0 0 0 0 0 0 0 0 0 0 0 0 0 0
0 0 0 0 0 0 0 0 0 0 -0 0 0 0 0 0 0 0 0 0 0 0 0 0 0 0 0 0 0 0 0 0 0 0 0 0 0 0 0 0 0 0 0 0 0 0 0
0 0 0 0 0 0 0 0 0 0 -0 0 0 0 0 0 0 0 0 0 0 0 0 0 0 0 0 0 0 0 0 0 0 0 0 0 0 0 0 0 0 0 0 0 0 0 0
0 0 0 0 0 0 0 0 0 0 0 0 0 0 0 0 0 0 0 0 0 0 0 0 0 0 0 0 0 0 0 0 0 0 0 0 0 0 0 0 0 0 0 0 0 0 0
0 0 0 0 0 0 0 0 0 0 0 0 0 0 0 0 0 0 0 0 0 0 0 0 0 0 0 0 0 0 0 0 0 0 0 0 0 0 0 0 0 0 0 0 0 0 0
0 0 0 0 0 0 0 0 0 0 0 0 0 0 0 0 0 0 0 0 0 0 0 0 0 0 0 0 0 0 0 0 0 0 0 0 0 0 0 0 0 0 0 0 0 0 0
0 0 0 0 0 0 0 0 0 0 0 0 0 0 0 0 0 0 0 0 0 0 0 0 0 0 0 0 0 0 0 0 0 0 0 0 0 0 0 0 0 0 0 0 0 0 0
0 0 0 0 0 0 0 0 0 0 0 0 0 0 0 0 0 0 0 0 0 0 0 0 0 0 0 0 0 0 0 0 0 0 0 0 0 0 0 0 0 0 0 0 0 0 0
0 0 0 0 0 0 0 0 0 0 0 0 0 0 0 0 0 0 0 0 0 0 0 0 0 0 0 0 0 0 0 0 0 0 0 0 0 0 0 0 0 0 0 0 0 0 0
0 0 0 0 0 0 0 0 0 0 0 0 0 0 0 0 0 0 0 0 0 0 0 0 0 0 0 0 0 0 0 0 0 0 0 0 0 0 0 0 0 0 0 0 0 0 0
0 0 0 0 0 0 0 0 0 0 0 0 0 0 0 0 0 0 0 0 0 0 0 0 0 0 0 0 0 0 0 0 0 0 0 0 0 0 0 0 0 0 0 0 0 0 0
0 0 0 0 0 0 0 0 0 0 0 0 0 0 0 0 0 0 0 0 0 0 0 0 0 0 0 0 0 0 0 0 0 0 0 0 0 0 0 0 0 0 0 0 0 0 0
Wind_Speed_500mb
41 43 44 47 49 51 52 54 56 56 55 56 53 47 39 32 26 20 17 17 16 13 11 9 8 7 7 6 6 11 9 9 10 18 25 23 26 14 10 9 9 8 6 11 18 22 26
40 42 43 44 46 48 51 53 54 55 55 55 55 50 41 31 25 22 18 16 17 16 12 9 8 7 7 5 12 15 12 8 14 26 21 14 7 6 5 4 8 9 6 11 10 19 20
41 42 43 45 46 49 50 52 54 55 55 56 56 52 41 31 24 22 20 16 15 16 15 11 8 8 14 15 14 21 16 11 14 17 11 6 1 1 4 3 1 3 7 12 9 15 11
39 40 42 44 45 47 49 51 52 54 55 57 60 56 43 34 23 21 21 18 20 18 15 12 8 10 12 8 25 26 19 19 18 16 11 4 6 6 4 1 11 7 9 6 11 6 14
40 41 42 43 45 47 48 49 50 51 52 53 58 59 51 37 25 19 21 25 25 22 15 10 11 10 12 15 24 27 25 23 18 11 11 15 7 4 3 9 9 13 2 1 14 7 8
41 42 43 43 45 46 47 48 48 49 51 55 59 60 59 48 30 19 19 27 18 16 11 12 15 12 10 6 7 21 31 23 16 10 10 4 7 6 7 9 6 4 2 5 10 10 5
43 43 43 43 43 44 45 44 44 44 46 53 61 67 62 54 40 21 16 17 11 7 14 19 22 27 16 12 11 12 27 34 29 5 7 4 6 12 17 15 10 6 8 10 14 23 7
42 43 45 46 45 43 43 44 43 42 44 51 62 70 69 58 47 24 16 9 5 17 23 39 45 51 49 24 11 13 22 23 14 12 6 8 12 21 12 9 10 10 8 13 14 15 10
43 44 43 45 46 47 45 44 45 47 51 58 67 71 70 63 44 19 16 5 12 17 8 19 13 19 32 34 18 25 28 25 9 12 12 13 17 11 12 7 8 9 8 10 16 8 10
44 44 45 43 45 46 48 48 49 51 54 59 63 65 65 64 23 11 8 10 16 10 7 10 7 6 22 17 9 43 34 24 3 19 14 11 10 14 5 14 12 11 14 13 8 2 9
46 45 45 46 46 46 47 50 51 53 56 59 60 60 63 57 37 17 9 7 14 3 8 2 3 12 30 19 1 8 44 40 15 13 12 17 9 6 10 18 14 18 10 14 6 8 3
45 46 47 46 46 45 48 49 54 58 59 59 60 63 66 54 38 8 10 7 4 5 8 5 10 9 9 8 3 9 15 23 13 11 6 13 4 12 16 4 10 4 5 6 8 4 8
45 45 49 50 46 45 48 53 57 59 63 67 68 63 53 38 14 14 6 3 6 6 8 7 6 2 9 9 4 6 9 11 12 5 10 10 20 10 10 6 3 9 10 7 7 6 25
42 45 48 49 49 47 50 52 57 65 70 70 67 53 32 10 9 16 3 6 5 4 8 9 10 12 3 3 3 5 3 1 5 6 4 9 17 13 8 11 14 9 13 9 13 17 30
43 42 44 46 45 43 46 54 60 61 66 73 63 30 24 5 10 13 7 4 4 5 7 11 15 6 3 1 3 3 3 6 6 9 10 7 9 5 4 5 10 8 8 3 2 3 6
43 41 42 43 40 40 47 53 56 60 69 73 52 14 37 14 17 6 8 7 1 8 13 11 6 6 3 3 2 3 5 7 8 4 7 6 5 3 3 9 9 7 9 6 5 7 11
41 40 41 40 39 42 45 51 53 58 70 71 26 9 31 8 8 5 4 6 2 19 39 13 14 9 5 5 4 4 5 2 6 2 9 6 7 8 4 8 14 3 2 6 4 7 7
37 38 40 41 41 43 45 46 47 55 65 73 26 5 26 7 8 5 3 11 18 4 15 14 15 7 5 7 7 11 13 8 4 2 4 1 8 9 19 3 5 5 14 12 8 8 8
33 37 38 40 41 42 42 42 42 44 54 62 32 14 19 6 4 5 10 10 7 15 3 4 9 3 15 12 9 6 3 9 9 6 5 5 3 4 11 3 6 7 10 9 6 6 14
37 38 38 35 37 39 38 38 38 40 41 41 18 8 13 21 16 9 11 6 9 25 12 4 14 13 10 10 9 12 4 5 7 5 13 5 9 18 21 16 8 8 11 12 12 6 12
36 37 38 36 34 33 33 34 34 35 32 25 16 4 6 8 5 5 5 7 22 14 4 7 6 12 4 8 8 15 8 13 29 40 7 12 11 9 10 9 7 10 18 17 18 28 17
35 35 34 33 31 30 30 28 31 31 23 12 11 9 11 14 18 13 2 4 15 16 8 7 7 12 15 10 11 17 26 21 15 7 9 2 6 1 8 12 17 24 30 27 30 22 29
33 35 32 32 28 28 25 24 26 26 17 7 6 7 5 8 7 5 4 8 13 24 10 22 13 12 16 31 36 46 53 50 26 11 11 7 8 3 12 6 10 17 25 25 8 11 12
34 33 31 30 27 25 24 24 24 24 17 7 5 6 1 5 7 8 22 33 32 26 10 21 33 26 14 34 62 46 41 34 28 21 19 11 10 6 7 5 9 8 0 7 8 15 11
36 35 32 29 29 27 25 25 23 17 18 5 4 6 3 6 8 22 15 12 23 26 24 35 43 29 29 36 9 10 5 2 3 1 11 12 10 3 4 6 13 8 3 3 4 13 17
35 35 32 27 26 27 27 27 21 18 17 10 6 6 7 6 6 5 11 22 12 6 13 12 21 28 20 7 6 5 4 4 2 3 12 14 7 7 4 6 9 5 4 6 2 20 8
34 34 32 25 25 25 26 26 24 21 19 15 11 11 13 10 16 8 7 10 9 8 9 15 13 15 6 3 4 5 6 5 2 2 4 5 5 11 8 7 13 5 4 10 3 10 14
37 36 33 26 22 20 22 24 25 24 22 20 19 13 24 14 31 34 31 22 21 20 6 9 15 1 5 4 3 3 2 5 6 3 3 8 6 5 3 5 12 2 8 3 9 52 54
34 34 24 16 12 17 18 23 26 24 24 21 26 21 20 37 35 56 70 66 61 54 16 6 6 6 9 4 2 3 3 3 1 4 4 3 4 4 11 10 4 9 19 42 38 46 47
Wind_Direction_500mb
16 18 18 17 14 15 16 16 15 12 10 9 10 8 7 2 359 359 356 350 345 340 333 321 302 277 272 265 226 168 152 158 165 164 151 147 159 160 173 187 176 188 264 279 289 290 273
8 10 11 12 12 12 12 12 13 13 11 10 7 6 4 5 5 3 359 358 360 350 338 326 304 288 251 260 163 178 186 184 135 143 149 152 147 184 190 161 158 191 237 264 272 266 258
360 2 4 5 7 7 9 10 9 9 10 8 6 1 1 360 357 353 348 339 343 352 341 318 297 282 262 225 176 171 186 197 182 146 143 139 72 77 117 353 38 339 331 337 253 253 240
352 354 356 358 1 3 5 6 8 7 8 8 5 2 357 355 351 343 341 336 325 320 327 312 297 292 255 208 184 179 170 168 168 196 216 256 270 283 192 163 19 39 42 2 286 315 273
345 347 350 353 354 357 360 2 5 6 6 9 7 5 358 347 341 332 327 328 316 307 295 292 285 295 268 208 205 190 185 179 196 231 278 293 284 216 93 85 16 11 203 243 311 236 271
340 342 345 347 349 351 354 357 1 6 7 8 9 3 357 345 328 318 314 325 320 309 269 262 267 297 232 170 142 211 202 199 219 242 290 285 164 82 45 74 227 197 217 238 247 281 191
335 337 339 342 344 346 348 350 352 357 1 4 7 3 355 346 327 307 303 320 328 302 256 231 280 261 273 286 279 225 214 213 232 287 195 43 92 217 220 199 198 219 204 228 258 267 246
329 331 334 336 338 341 342 343 344 344 344 349 351 352 354 346 332 290 283 292 308 296 293 280 261 252 248 254 314 185 188 175 160 190 131 25 247 230 202 187 203 212 247 264 272 261 172
326 327 329 332 333 335 337 338 337 333 330 331 336 342 345 346 338 286 255 258 334 331 279 294 254 240 233 223 228 233 187 193 163 180 179 172 231 109 175 215 205 230 192 240 227 310 297
325 325 326 326 326 330 331 334 335 332 330 329 334 337 337 343 346 324 235 261 315 309 29 273 248 195 148 159 226 227 205 185 198 204 161 226 241 228 212 249 150 280 205 230 227 107 264
335 332 327 325 325 328 329 331 334 332 331 330 331 337 333 337 327 280 210 271 304 274 339 162 132 147 163 171 193 215 207 203 191 181 133 235 174 159 206 232 148 232 181 193 216 222 25
338 338 334 329 325 327 329 333 334 331 332 330 327 332 328 326 324 253 194 282 193 33 256 355 131 155 144 242 277 121 176 209 233 155 270 239 193 176 211 251 186 93 106 52 48 120 217
332 335 334 335 330 329 333 335 333 332 332 329 322 324 318 307 298 155 197 169 53 215 326 12 13 70 198 210 177 162 180 170 190 137 240 301 259 233 190 209 36 88 74 310 313 265 269
330 334 333 331 333 337 338 338 337 336 333 330 327 327 316 303 217 189 195 67 178 351 348 350 333 314 255 17 63 15 92 250 213 179 158 196 284 177 181 180 185 173 161 178 246 271 284
321 328 331 335 339 344 344 343 341 343 344 340 337 3 30 100 156 156 138 105 240 54 352 315 315 246 190 210 110 63 242 229 227 158 172 185 269 338 65 127 132 180 184 134 347 245 319
312 319 327 335 340 346 345 347 347 349 352 347 344 40 32 78 119 107 84 228 259 31 325 319 285 14 276 240 199 183 227 210 153 148 107 227 281 272 128 117 57 144 142 65 13 298 267
307 309 315 324 332 338 341 347 349 351 357 356 6 58 3 125 114 59 147 244 307 7 7 349 326 313 277 277 238 229 232 319 30 53 136 155 146 279 22 204 187 87 132 70 136 168 225
306 305 306 313 320 328 334 344 348 350 358 4 2 50 11 157 56 53 64 325 328 24 350 328 336 348 348 345 255 223 235 203 97 65 230 128 157 223 219 318 302 154 192 158 156 235 224
307 306 304 305 309 322 330 339 344 351 357 356 346 316 8 51 78 33 339 334 316 25 210 285 252 345 346 325 318 269 316 109 106 73 50 183 251 292 322 24 348 201 197 181 125 96 215
322 315 311 309 304 313 323 334 342 349 353 356 354 352 353 46 52 57 4 286 323 345 310 254 262 338 8 279 252 278 256 333 24 354 334 191 198 225 248 252 165 194 212 198 163 159 244
312 313 314 315 306 306 315 324 337 349 358 1 9 25 11 330 354 333 284 289 294 295 293 306 270 212 202 268 289 244 288 324 310 298 239 170 219 207 257 256 216 235 240 225 207 240 224
315 317 319 316 304 305 307 322 332 341 354 15 10 1 353 304 313 313 185 276 284 310 352 284 227 236 249 248 258 291 293 268 252 242 197 202 245 240 261 267 256 255 253 239 240 251 256
311 313 318 321 311 305 308 317 328 338 354 32 3 336 287 287 301 295 240 294 348 339 278 257 286 314 282 272 262 274 278 270 250 214 198 176 160 71 277 262 312 279 251 238 202 231 228
304 305 313 309 310 312 309 308 316 322 326 342 354 350 263 273 249 297 315 313 302 303 289 284 288 275 251 308 312 289 268 252 241 235 194 164 144 148 263 10 237 257 337 132 226 251 243
300 301 299 300 297 296 297 297 294 307 312 292 14 354 228 281 306 298 298 310 319 309 292 282 278 281 294 295 275 295 326 212 118 284 208 176 129 195 181 206 298 289 117 92 19 279 240
288 297 293 290 291 290 289 291 281 291 293 265 263 285 235 285 234 292 315 281 285 295 299 257 306 294 296 238 264 264 264 302 150 100 68 97 96 142 139 181 242 254 183 360 80 276 99
287 290 295 292 283 284 287 285 276 272 276 262 265 240 244 246 269 224 275 314 296 271 268 285 335 338 317 251 228 240 263 343 259 291 168 129 162 224 232 251 282 259 330 348 226 286 258
282 286 295 285 277 281 280 275 273 265 265 258 269 269 241 254 278 267 259 251 276 246 241 335 315 174 279 245 261 281 318 350 322 271 207 191 159 236 259 256 276 31 354 182 275 303 306
275 283 281 267 271 295 282 277 270 261 260 249 258 274 275 250 265 282 288 282 268 255 265 229 274 305 265 307 291 272 314 349 146 297 5 234 180 210 190 228 235 321 266 296 317 298 300
Wind_Speed_850mb
41 43 44 47 49 51 52 54 56 56 55 56 53 47 39 32 26 20 17 17 16 13 11 9 8 7 7 6 6 11 9 9 10 18 25 23 26 14 10 9 9 8 6 11 18 22 26
40 42 43 44 46 48 51 53 54 55 55 55 55 50 41 31 25 22 18 16 17 16 12 9 8 7 7 5 12 15 12 8 14 26 21 14 7 6 5 4 8 9 6 11 10 19 20
41 42 43 45 46 49 50 52 54 55 55 56 56 52 41 31 24 22 20 16 15 16 15 11 8 8 14 15 14 21 16 11 14 17 11 6 1 1 4 3 1 3 7 12 9 15 11
39 40 42 44 45 47 49 51 52 54 55 57 60 56 43 34 23 21 21 18 20 18 15 12 8 10 12 8 25 26 19 19 18 16 11 4 6 6 4 1 11 7 9 6 11 6 14
40 41 42 43 45 47 48 49 50 51 52 53 58 59 51 37 25 19 21 25 25 22 15 10 11 10 12 15 24 27 25 23 18 11 11 15 7 4 3 9 9 13 2 1 14 7 8
41 42 43 43 45 46 47 48 48 49 51 55 59 60 59 48 30 19 19 27 18 16 11 12 15 12 10 6 7 21 31 23 16 10 10 4 7 6 7 9 6 4 2 5 10 10 5
43 43 43 43 43 44 45 44 44 44 46 53 61 67 62 54 40 21 16 17 11 7 14 19 22 27 16 12 11 12 27 34 29 5 7 4 6 12 17 15 10 6 8 10 14 23 7
42 43 45 46 45 43 43 44 43 42 44 51 62 70 69 58 47 24 16 9 5 17 23 39 45 51 49 24 11 13 22 23 14 12 6 8 12 21 12 9 10 10 8 13 14 15 10
43 44 43 45 46 47 45 44 45 47 51 58 67 71 70 63 44 19 16 5 12 17 8 19 13 19 32 34 18 25 28 25 9 12 12 13 17 11 12 7 8 9 8 10 16 8 10
44 44 45 43 45 46 48 48 49 51 54 59 63 65 65 64 23 11 8 10 16 10 7 10 7 6 22 17 9 43 34 24 3 19 14 11 10 14 5 14 12 11 14 13 8 2 9
46 45 45 46 46 46 47 50 51 53 56 59 60 60 63 57 37 17 9 7 14 3 8 2 3 12 30 19 1 8 44 40 15 13 12 17 9 6 10 18 14 18 10 14 6 8 3
45 46 47 46 46 45 48 49 54 58 59 59 60 63 66 54 38 8 10 7 4 5 8 5 10 9 9 8 3 9 15 23 13 11 6 13 4 12 16 4 10 4 5 6 8 4 8
45 45 49 50 46 45 48 53 57 59 63 67 68 63 53 38 14 14 6 3 6 6 8 7 6 2 9 9 4 6 9 11 12 5 10 10 20 10 10 6 3 9 10 7 7 6 25
42 45 48 49 49 47 50 52 57 65 70 70 67 53 32 10 9 16 3 6 5 4 8 9 10 12 3 3 3 5 3 1 5 6 4 9 17 13 8 11 14 9 13 9 13 17 30
43 42 44 46 45 43 46 54 60 61 66 73 63 30 24 5 10 13 7 4 4 5 7 11 15 6 3 1 3 3 3 6 6 9 10 7 9 5 4 5 10 8 8 3 2 3 6
43 41 42 43 40 40 47 53 56 60 69 73 52 14 37 14 17 6 8 7 1 8 13 11 6 6 3 3 2 3 5 7 8 4 7 6 5 3 3 9 9 7 9 6 5 7 11
41 40 41 40 39 42 45 51 53 58 70 71 26 9 31 8 8 5 4 6 2 19 39 13 14 9 5 5 4 4 5 2 6 2 9 6 7 8 4 8 14 3 2 6 4 7 7
37 38 40 41 41 43 45 46 47 55 65 73 26 5 26 7 8 5 3 11 18 4 15 14 15 7 5 7 7 11 13 8 4 2 4 1 8 9 19 3 5 5 14 12 8 8 8
33 37 38 40 41 42 42 42 42 44 54 62 32 14 19 6 4 5 10 10 7 15 3 4 9 3 15 12 9 6 3 9 9 6 5 5 3 4 11 3 6 7 10 9 6 6 14
37 38 38 35 37 39 38 38 38 40 41 41 18 8 13 21 16 9 11 6 9 25 12 4 14 13 10 10 9 12 4 5 7 5 13 5 9 18 21 16 8 8 11 12 12 6 12
36 37 38 36 34 33 33 34 34 35 32 25 16 4 6 8 5 5 5 7 22 14 4 7 6 12 4 8 8 15 8 13 29 40 7 12 11 9 10 9 7 10 18 17 18 28 17
35 35 34 33 31 30 30 28 31 31 23 12 11 9 11 14 18 13 2 4 15 16 8 7 7 12 15 10 11 17 26 21 15 7 9 2 6 1 8 12 17 24 30 27 30 22 29
33 35 32 32 28 28 25 24 26 26 17 7 6 7 5 8 7 5 4 8 13 24 10 22 13 12 16 31 36 46 53 50 26 11 11 7 8 3 12 6 10 17 25 25 8 11 12
34 33 31 30 27 25 24 24 24 24 17 7 5 6 1 5 7 8 22 33 32 26 10 21 33 26 14 34 62 46 41 34 28 21 19 11 10 6 7 5 9 8 0 7 8 15 11
36 35 32 29 29 27 25 25 23 17 18 5 4 6 3 6 8 22 15 12 23 26 24 35 43 29 29 36 9 10 5 2 3 1 11 12 10 3 4 6 13 8 3 3 4 13 17
35 35 32 27 26 27 27 27 21 18 17 10 6 6 7 6 6 5 11 22 12 6 13 12 21 28 20 7 6 5 4 4 2 3 12 14 7 7 4 6 9 5 4 6 2 20 8
34 34 32 25 25 25 26 26 24 21 19 15 11 11 13 10 16 8 7 10 9 8 9 15 13 15 6 3 4 5 6 5 2 2 4 5 5 11 8 7 13 5 4 10 3 10 14
37 36 33 26 22 20 22 24 25 24 22 20 19 13 24 14 31 34 31 22 21 20 6 9 15 1 5 4 3 3 2 5 6 3 3 8 6 5 3 5 12 2 8 3 9 52 54
34 34 24 16 12 17 18 23 26 24 24 21 26 21 20 37 35 56 70 66 61 54 16 6 6 6 9 4 2 3 3 3 1 4 4 3 4 4 11 10 4 9 19 42 38 46 47
Wind_Direction_850mb
16 18 18 17 14 15 16 16 15 12 10 9 10 8 7 2 359 359 356 350 345 340 333 321 302 277 272 265 226 168 152 158 165 164 151 147 159 160 173 187 176 188 264 279 289 290 273
8 10 11 12 12 12 12 12 13 13 11 10 7 6 4 5 5 3 359 358 360 350 338 326 304 288 251 260 163 178 186 184 135 143 149 152 147 184 190 161 158 191 237 264 272 266 258
360 2 4 5 7 7 9 10 9 9 10 8 6 1 1 360 357 353 348 339 343 352 341 318 297 282 262 225 176 171 186 197 182 146 143 139 72 77 117 353 38 339 331 337 253 253 240
352 354 356 358 1 3 5 6 8 7 8 8 5 2 357 355 351 343 341 336 325 320 327 312 297 292 255 208 184 179 170 168 168 196 216 256 270 283 192 163 19 39 42 2 286 315 273
345 347 350 353 354 357 360 2 5 6 6 9 7 5 358 347 341 332 327 328 316 307 295 292 285 295 268 208 205 190 185 179 196 231 278 293 284 216 93 85 16 11 203 243 311 236 271
340 342 345 347 349 351 354 357 1 6 7 8 9 3 357 345 328 318 314 325 320 309 269 262 267 297 232 170 142 211 202 199 219 242 290 285 164 82 45 74 227 197 217 238 247 281 191
335 337 339 342 344 346 348 350 352 357 1 4 7 3 355 346 327 307 303 320 328 302 256 231 280 261 273 286 279 225 214 213 232 287 195 43 92 217 220 199 198 219 204 228 258 267 246
329 331 334 336 338 341 342 343 344 344 344 349 351 352 354 346 332 290 283 292 308 296 293 280 261 252 248 254 314 185 188 175 160 190 131 25 247 230 202 187 203 212 247 264 272 261 172
326 327 329 332 333 335 337 338 337 333 330 331 336 342 345 346 338 286 255 258 334 331 279 294 254 240 233 223 228 233 187 193 163 180 179 172 231 109 175 215 205 230 192 240 227 310 297
325 325 326 326 326 330 331 334 335 332 330 329 334 337 337 343 346 324 235 261 315 309 29 273 248 195 148 159 226 227 205 185 198 204 161 226 241 228 212 249 150 280 205 230 227 107 264
335 332 327 325 325 328 329 331 334 332 331 330 331 337 333 337 327 280 210 271 304 274 339 162 132 147 163 171 193 215 207 203 191 181 133 235 174 159 206 232 148 232 181 193 216 222 25
338 338 334 329 325 327 329 333 334 331 332 330 327 332 328 326 324 253 194 282 193 33 256 355 131 155 144 242 277 121 176 209 233 155 270 239 193 176 211 251 186 93 106 52 48 120 217
332 335 334 335 330 329 333 335 333 332 332 329 322 324 318 307 298 155 197 169 53 215 326 12 13 70 198 210 177 162 180 170 190 137 240 301 259 233 190 209 36 88 74 310 313 265 269
330 334 333 331 333 337 338 338 337 336 333 330 327 327 316 303 217 189 195 67 178 351 348 350 333 314 255 17 63 15 92 250 213 179 158 196 284 177 181 180 185 173 161 178 246 271 284
321 328 331 335 339 344 344 343 341 343 344 340 337 3 30 100 156 156 138 105 240 54 352 315 315 246 190 210 110 63 242 229 227 158 172 185 269 338 65 127 132 180 184 134 347 245 319
312 319 327 335 340 346 345 347 347 349 352 347 344 40 32 78 119 107 84 228 259 31 325 319 285 14 276 240 199 183 227 210 153 148 107 227 281 272 128 117 57 144 142 65 13 298 267
307 309 315 324 332 338 341 347 349 351 357 356 6 58 3 125 114 59 147 244 307 7 7 349 326 313 277 277 238 229 232 319 30 53 136 155 146 279 22 204 187 87 132 70 136 168 225
306 305 306 313 320 328 334 344 348 350 358 4 2 50 11 157 56 53 64 325 328 24 350 328 336 348 348 345 255 223 235 203 97 65 230 128 157 223 219 318 302 154 192 158 156 235 224
307 306 304 305 309 322 330 339 344 351 357 356 346 316 8 51 78 33 339 334 316 25 210 285 252 345 346 325 318 269 316 109 106 73 50 183 251 292 322 24 348 201 197 181 125 96 215
322 315 311 309 304 313 323 334 342 349 353 356 354 352 353 46 52 57 4 286 323 345 310 254 262 338 8 279 252 278 256 333 24 354 334 191 198 225 248 252 165 194 212 198 163 159 244
312 313 314 315 306 306 315 324 337 349 358 1 9 25 11 330 354 333 284 289 294 295 293 306 270 212 202 268 289 244 288 324 310 298 239 170 219 207 257 256 216 235 240 225 207 240 224
315 317 319 316 304 305 307 322 332 341 354 15 10 1 353 304 313 313 185 276 284 310 352 284 227 236 249 248 258 291 293 268 252 242 197 202 245 240 261 267 256 255 253 239 240 251 256
311 313 318 321 311 305 308 317 328 338 354 32 3 336 287 287 301 295 240 294 348 339 278 257 286 314 282 272 262 274 278 270 250 214 198 176 160 71 277 262 312 279 251 238 202 231 228
304 305 313 309 310 312 309 308 316 322 326 342 354 350 263 273 249 297 315 313 302 303 289 284 288 275 251 308 312 289 268 252 241 235 194 164 144 148 263 10 237 257 337 132 226 251 243
300 301 299 300 297 296 297 297 294 307 312 292 14 354 228 281 306 298 298 310 319 309 292 282 278 281 294 295 275 295 326 212 118 284 208 176 129 195 181 206 298 289 117 92 19 279 240
288 297 293 290 291 290 289 291 281 291 293 265 263 285 235 285 234 292 315 281 285 295 299 257 306 294 296 238 264 264 264 302 150 100 68 97 96 142 139 181 242 254 183 360 80 276 99
287 290 295 292 283 284 287 285 276 272 276 262 265 240 244 246 269 224 275 314 296 271 268 285 335 338 317 251 228 240 263 343 259 291 168 129 162 224 232 251 282 259 330 348 226 286 258
282 286 295 285 277 281 280 275 273 265 265 258 269 269 241 254 278 267 259 251 276 246 241 335 315 174 279 245 261 281 318 350 322 271 207 191 159 236 259 256 276 31 354 182 275 303 306
275 283 281 267 271 295 282 277 270 261 260 249 258 274 275 250 265 282 288 282 268 255 265 229 274 305 265 307 291 272 314 349 146 297 5 234 180 210 190 228 235 321 266 296 317 298 300